Lorain / Elyria, OH

12:55 PM EDT on April 30, 2017 (GMT -0400)
Lorain County Regional

Weather History for KLPR - April, 2013

Change the Weather History Date:

Wednesday, April 10, 2013

  Actual Average (KCLE) Record (KCLE)
Temperature  
Mean Temperature 50 °F -  
Max Temperature 62 °F 52 °F 83 °F (1978)
Min Temperature 42 °F 32 °F 20 °F (1997)
Degree Days  
Heating Degree Days 16    
Moisture  
Dew Point 44 °F    
Average Humidity 89    
Maximum Humidity 100    
Minimum Humidity 77    
Precipitation  
Precipitation 1.28 in - - ()
Sea Level Pressure  
Sea Level Pressure 29.90 in    
Wind  
Wind Speed 7 mph (NNE)    
Max Wind Speed 21 mph    
Max Gust Speed 39 mph    
Visibility 5 miles    
Events Fog , Rain , Thunderstorm    
Averages and records for this station are not official NWS values.
T = Trace of Precipitation, MM = Missing Value Source: NWS Daily Summary

Daily Weather History Graph

Daily Weather History Graph

Search for Another Location

Airport or City:

Trip Planner

Search our weather history database for the weather conditions in past years. The results will help you decide how hot, cold, wet, or windy it might be!

Date:

Astronomy

Apr. 10, 2013 Rise Set
Actual Time 6:56 AM EDT 8:03 PM EDT
Civil Twilight 6:28 AM EDT 8:32 PM EDT
Nautical Twilight 5:54 AM EDT 9:06 PM EDT
Astronomical Twilight 5:19 AM EDT 9:41 PM EDT
Moon 6:51 AM EDT (4/10) 8:39 PM EDT (4/10)
Length of Visible Light 14h 03m
Length of Day
13h 07m
New Moon, 0% of the Moon is Illuminated
Apr 10
New Moon
Apr 18
First Quarter
Apr 25
Full
May 2
Last Quarter
May 9
New

Hourly Weather History & Observations

Time (EDT) Temp. Windchill Dew Point Humidity Pressure Visibility Wind Dir Wind Speed Gust Speed Precip Events Conditions
12:53 AM 51.1 °F - 44.1 °F 77% 29.93 in 10.0 mi Calm Calm - 0.00 in   Overcast
1:53 AM 45.0 °F 40.1 °F 39.9 °F 82% 29.95 in 10.0 mi NNW 9.2 mph - N/A   Overcast
2:53 AM 45.0 °F 42.6 °F 39.9 °F 82% 29.96 in 10.0 mi North 4.6 mph - N/A   Overcast
3:53 AM 45.0 °F 42.6 °F 41.0 °F 86% 29.94 in 9.0 mi ENE 4.6 mph - 0.00 in   Mostly Cloudy
4:53 AM 46.0 °F 43.9 °F 41.0 °F 83% 29.93 in 9.0 mi ENE 4.6 mph - N/A   Overcast
5:53 AM 46.0 °F - 41.0 °F 83% 29.91 in 9.0 mi Calm Calm - N/A   Mostly Cloudy
6:53 AM 46.9 °F - 42.1 °F 83% 29.91 in 8.0 mi Calm Calm - N/A   Overcast
7:53 AM 48.0 °F - 43.0 °F 83% 29.90 in 8.0 mi South 5.8 mph - N/A   Overcast
8:53 AM 53.1 °F - 46.0 °F 77% 29.89 in 8.0 mi SSW 6.9 mph - N/A   Mostly Cloudy
9:53 AM 55.9 °F - 50.0 °F 80% 29.90 in 8.0 mi NNW 8.1 mph - 0.00 in Rain Light Rain
10:35 AM 48.2 °F - 44.6 °F 87% 29.90 in 6.0 mi North 8.1 mph - 0.01 in   Haze
10:53 AM 50.0 °F - 44.1 °F 80% 29.92 in 7.0 mi NNE 9.2 mph - 0.01 in   Partly Cloudy
11:06 AM 50.0 °F - 44.6 °F 82% 29.90 in 8.0 mi NNE 6.9 mph - N/A Thunderstorm Mostly Cloudy
11:42 AM 48.2 °F - 44.6 °F 87% 29.94 in 1.5 mi North 6.9 mph - 0.13 in Rain , Thunderstorm Heavy Thunderstorms and Rain
11:50 AM 48.2 °F - 46.4 °F 93% 29.90 in 0.5 mi NNE 6.9 mph - 0.32 in Fog , Rain , Thunderstorm Heavy Thunderstorms and Rain
11:53 AM 48.0 °F - 46.0 °F 93% 29.93 in 0.8 mi NNE 9.2 mph - 0.32 in Rain , Thunderstorm Light Thunderstorms and Rain
11:56 AM 48.2 °F - 46.4 °F 93% 29.92 in 2.0 mi NNE 9.2 mph - 0.00 in Rain , Thunderstorm Light Thunderstorms and Rain
12:04 PM 48.2 °F - 46.4 °F 93% 29.90 in 3.0 mi East 4.6 mph - 0.03 in Rain , Thunderstorm Light Thunderstorms and Rain
12:24 PM 50.0 °F - 46.4 °F 87% 29.91 in 5.0 mi NE 3.5 mph - 0.03 in Thunderstorm Overcast
12:45 PM 50.0 °F - 46.4 °F 87% 29.88 in 4.0 mi Calm Calm - 0.04 in Rain Light Rain
12:53 PM 50.0 °F - 48.0 °F 93% 29.90 in 4.0 mi Calm Calm - 0.04 in   Mostly Cloudy
1:02 PM 50.0 °F - 48.2 °F 94% 29.89 in 4.0 mi Calm Calm - N/A Thunderstorm Scattered Clouds
1:19 PM 51.8 °F - 48.2 °F 88% 29.88 in 4.0 mi South 5.8 mph - 0.00 in   Scattered Clouds
1:53 PM 55.0 °F - 52.0 °F 89% 29.87 in 4.0 mi South 4.6 mph - 0.00 in   Overcast
2:53 PM 57.0 °F - 53.1 °F 87% 29.86 in 5.0 mi North 16.1 mph 27.6 mph N/A   Overcast
3:21 PM 48.2 °F - 46.4 °F 93% 29.85 in 4.0 mi North 13.8 mph 17.3 mph N/A   Mostly Cloudy
3:53 PM 48.0 °F - 45.0 °F 89% 29.84 in 5.0 mi North - - N/A   Mostly Cloudy
4:12 PM 48.2 °F - 44.6 °F 87% 29.83 in 6.0 mi North - - N/A Thunderstorm Mostly Cloudy
4:23 PM 48.2 °F - 44.6 °F 87% 29.86 in 5.0 mi Variable 6.9 mph - 0.01 in Rain , Thunderstorm Light Thunderstorms and Rain
4:27 PM 48.2 °F - 44.6 °F 87% 29.91 in 2.5 mi NNW 20.7 mph 39.1 mph 0.10 in Rain , Thunderstorm Heavy Thunderstorms and Rain
4:33 PM 46.4 °F 38.7 °F 44.6 °F 93% 29.93 in 1.0 mi NW 20.7 mph 39.1 mph 0.33 in Rain , Thunderstorm Heavy Thunderstorms and Rain
4:41 PM 44.6 °F 43.1 °F 42.8 °F 93% 29.87 in 1.2 mi Variable 3.5 mph 29.9 mph 0.42 in Rain , Thunderstorm Thunderstorms and Rain
4:45 PM 44.6 °F 40.7 °F 42.8 °F 93% 29.87 in 2.5 mi Variable 6.9 mph - 0.44 in Rain , Thunderstorm Thunderstorms and Rain
4:53 PM 46.0 °F 41.9 °F 44.1 °F 93% 29.85 in 4.0 mi East 8.1 mph - 0.45 in Rain , Thunderstorm Light Thunderstorms and Rain
4:57 PM 46.4 °F 41.5 °F 44.6 °F 93% 29.82 in 4.0 mi East 10.4 mph - 0.00 in Rain , Thunderstorm Light Rain
5:16 PM 48.2 °F - 46.4 °F 93% 29.82 in 4.0 mi SSW 6.9 mph - 0.02 in Rain Light Rain
5:40 PM 46.4 °F 41.1 °F 44.6 °F 93% 29.87 in 5.0 mi NNW 11.5 mph - 0.02 in Rain , Thunderstorm Light Rain
5:53 PM 46.9 °F - 45.0 °F 93% 29.88 in 6.0 mi WSW 5.8 mph - 0.02 in Rain , Thunderstorm Light Rain
6:21 PM 48.2 °F - 44.6 °F 87% 29.89 in 7.0 mi North 15.0 mph 18.4 mph 0.00 in Thunderstorm Overcast
6:29 PM 44.6 °F 36.9 °F 42.8 °F 93% 29.91 in 3.0 mi North 18.4 mph - 0.00 in   Overcast
6:32 PM 42.8 °F 34.8 °F 41.0 °F 93% 29.91 in 3.0 mi NNE 17.3 mph - 0.00 in Thunderstorm Overcast
6:41 PM 42.8 °F 36.2 °F 41.0 °F 93% 29.92 in 1.8 mi NNE 12.7 mph - 0.00 in Thunderstorm Overcast
6:53 PM 43.0 °F 35.7 °F 42.1 °F 97% 29.92 in 0.5 mi NE 15.0 mph - 0.00 in Fog , Rain , Thunderstorm Light Rain
7:05 PM 42.8 °F 38.6 °F 42.8 °F 100% 29.98 in 1.8 mi East 6.9 mph 19.6 mph 0.10 in Rain , Thunderstorm Heavy Rain
7:16 PM 42.8 °F 35.4 °F 41.0 °F 93% 29.97 in 3.0 mi NE 15.0 mph - 0.15 in Rain , Thunderstorm Thunderstorms and Rain
7:53 PM 43.0 °F 36.4 °F 41.0 °F 93% 29.99 in 5.0 mi NE 12.7 mph - 0.28 in Rain , Thunderstorm Thunderstorms and Rain
8:17 PM 42.8 °F 34.5 °F 39.2 °F 87% 29.91 in 5.0 mi ENE 18.4 mph - 0.08 in Rain Rain
8:53 PM 42.1 °F 35.2 °F 39.9 °F 92% 29.85 in 10.0 mi East 12.7 mph - 0.11 in Rain Light Rain
9:31 PM 42.8 °F 38.6 °F 39.2 °F 87% 29.95 in 10.0 mi North 6.9 mph - 0.00 in Rain Light Rain
9:53 PM 42.1 °F 35.2 °F 39.9 °F 92% 29.94 in 10.0 mi ENE 12.7 mph - 0.00 in   Overcast
10:53 PM 42.1 °F 39.2 °F 39.9 °F 92% 29.95 in 7.0 mi NNW 4.6 mph - N/A   Overcast
11:53 PM 42.1 °F 37.1 °F 39.9 °F 92% 29.94 in 5.0 mi NNE 8.1 mph - 0.05 in Rain Light Rain